Regional Weather Roundup
Issued by NWS

Home | Current Version | Previous Version | Graphics & Text | Print | Product List | Glossary Off
Versions: 1 2 3 4 5 6 7 8 9 10 11 12 13 14 15 16 17 18 19 20 21 22 23 24 25 26 27 28 29 30 31 32 33 34 35 36 37 38 39 40 41 42 43 44 45 46 47 48 49 50

000
ASUS43 KTOP 250459
RWRKS

WEATHER ROUNDUP FOR KANSAS
NATIONAL WEATHER SERVICE GOODLAND KS
1200 AM CDT TUE APR 25 2017

NOTE:  "FAIR" INDICATES FEW OR NO CLOUDS BELOW 12,000 FEET WITH NO
SIGNIFICANT WEATHER AND/OR OBSTRUCTIONS TO VISIBILITY.

KSZ001>006-013>018-027>032-041>047-250600-
NORTHWEST KANSAS

CITY           SKY/WX    TMP DP  RH WIND       PRES   REMARKS
GOODLAND       CLOUDY    56  44  64 E15       29.49F
HAYS           CLOUDY    59  52  77 E8        29.48F
HILL CITY      CLOUDY    59  46  62 NE9       29.51S
RUSSELL        CLOUDY    63  52  67 SE12      29.48F
$$

KSZ061>065-074>080-084>089-250600-
SOUTHWEST KANSAS

CITY           SKY/WX    TMP DP  RH WIND       PRES   REMARKS
DODGE CITY     MOCLDY    61  50  67 SE17      29.42F
ELKHART          N/A     56  42  59 NW6         N/A
GARDEN CITY    PTCLDY    61  48  62 E9        29.43S
GREAT BEND     CLOUDY    63  52  67 SE13      29.48F
$$

KSZ066>073-081>083-090>101-250600-
SOUTHEAST KANSAS

CITY           SKY/WX    TMP DP  RH WIND       PRES   REMARKS
CHANUTE        PTCLDY    61  47  59 S12       29.61S
COFFEYVILLE    CLEAR     61  47  59 S8        29.62F
HUTCHINSON     CLOUDY    63  50  62 SE13      29.52S
MEDICINE LODGE   N/A     63  50  62 SE13G20   29.47F
NEWTON         CLOUDY    60  50  69 S12       29.54F
PARSONS        CLEAR     62  46  55 S7        29.62F
WICHITA INTL   CLOUDY    63  50  62 S12       29.53F
WICHITA JABRA  CLOUDY    63  48  58 S13       29.54F
WINFIELD       PTCLDY    62  48  60 SE14      29.56F
$$

KSZ007>012-019>026-033>040-048>060-102>105-250600-
NORTHEAST KANSAS

CITY           SKY/WX    TMP DP  RH WIND       PRES   REMARKS
CONCORDIA      CLOUDY    60  53  77 S7        29.52F
EMPORIA        CLOUDY    62  49  62 S14       29.56F
LAWRENCE       CLOUDY    64  46  52 S8        29.57F
MANHATTAN      CLOUDY    65  48  54 S9        29.53S
OLATHE IND     CLOUDY    63  45  51 S10       29.59F
OLATHE EXE     PTCLDY    59  46  62 S8        29.59F
SALINA         CLOUDY    66  51  58 S13       29.51F
TOPEKA BILLARD CLOUDY    65  47  52 S14       29.55F
TOPEKA FORBES  CLOUDY    64  46  52 S14       29.55F
$$




USA.gov is the U.S. government's official web portal to all federal, state and local government web resources and services.